DW5963 Weather Reports


time (UTC)temp
C
wind
direction
speed
KPH
gust
KPH
rain 1hr
cm
rain 24hr
cm
rain mn
cm
humidity
%
barometer
mb
20260904180048 28 101 25.7 0.0 0.00 0.00 0.00 52 1007.5
20260904175545 28 104 25.7 0.0 0.00 0.00 0.00 54 1007.6
20260904175043 27 129 27.4 0.0 0.00 0.00 0.00 56 1007.6
20260904174542 27 127 27.4 0.0 0.00 0.00 0.00 56 1007.8
20260904174042 27 121 27.4 0.0 0.00 0.00 0.00 57 1007.8
20260904173541 27 121 27.4 0.0 0.00 0.00 0.00 58 1008.0
20260904173050 27 128 25.7 0.0 0.00 0.00 0.00 59 1008.0
20260904172540 26 131 24.1 0.0 0.00 0.00 0.00 60 1008.1
20260904172038 26 101 25.7 0.0 0.00 0.00 0.00 62 1008.2
20260904171536 26 125 25.7 0.0 0.00 0.00 0.00 62 1008.4
20260904171039 26 360 24.1 0.0 0.00 0.00 0.00 64 1008.4
20260904170535 26 95 25.7 0.0 0.00 0.00 0.00 65 1008.4
20260904170034 25 124 24.1 0.0 0.00 0.00 0.00 66 1008.4
20260904165533 25 109 24.1 0.0 0.00 0.00 0.00 67 1008.4
20260904165034 25 360 24.1 0.0 0.00 0.00 0.00 69 1008.5
20260904164530 24 110 25.7 0.0 0.00 0.00 0.00 71 1008.5
20260904164028 24 119 25.7 0.0 0.00 0.00 0.00 71 1008.6
20260904163528 23 105 25.7 0.0 0.00 0.00 0.00 72 1008.6
20260904163027 23 119 25.7 0.0 0.00 0.00 0.00 72 1008.7
20260904162530 23 360 25.7 0.0 0.00 0.00 0.00 74 1008.6
20260904162025 23 127 24.1 0.0 0.00 0.00 0.00 76 1008.6
20260904161526 22 119 22.5 0.0 0.00 0.00 0.00 79 1008.6
20260904161022 22 103 19.3 0.0 0.00 0.00 0.00 79 1008.8
20260904160524 22 360 19.3 0.0 0.00 0.00 0.00 81 1008.7
20260904160020 22 360 20.9 0.0 0.00 0.00 0.00 83 1008.8
20260904155518 21 360 19.3 0.0 0.00 0.00 0.00 85 1009.0
20260904155017 21 360 16.1 0.0 0.00 0.00 0.00 88 1008.9
20260904154516 20 360 14.5 0.0 0.00 0.00 0.00 92 1009.0
20260904154016 20 360 16.1 0.0 0.00 0.00 0.00 92 1009.0
20260904153517 20 360 16.1 0.0 0.00 0.00 0.00 93 1009.0
20260904153014 19 360 16.1 0.0 0.00 0.00 0.00 94 1009.1
20260904152512 18 360 14.5 0.0 0.00 0.00 0.00 94 1009.2
20260904152015 18 360 12.9 0.0 0.00 0.00 0.00 95 1009.2
20260904151511 18 360 12.9 0.0 0.00 0.00 0.00 95 1009.1
20260904151010 18 360 14.5 0.0 0.00 0.00 0.00 95 1009.1
20260904150509 18 360 16.1 0.0 0.00 0.00 0.00 96 1009.2
20260904150011 18 360 14.5 0.0 0.00 0.00 0.00 95 1009.2
20260904145508 18 360 12.9 0.0 0.00 0.00 0.00 96 1009.2
20260904145006 17 360 12.9 0.0 0.00 0.00 0.00 96 1009.2
20260904144506 17 360 11.3 0.0 0.00 0.00 0.00 96 1009.6
20260904144007 17 360 9.7 0.0 0.00 0.00 0.00 96 1009.6
20260904143505 17 360 9.7 0.0 0.00 0.00 0.00 96 1009.6
20260904143004 17 360 8.0 0.0 0.00 0.00 0.00 96 1009.7
20260904142504 17 360 8.0 0.0 0.00 0.00 0.00 96 1009.8
20260904142004 17 360 8.0 0.0 0.00 0.00 0.00 96 1009.8
20260904141502 17 360 6.4 0.0 0.00 0.00 0.00 96 1009.8
20260904141001 17 360 8.0 0.0 0.00 0.00 0.00 96 1009.7
20260904140501 17 360 8.0 0.0 0.00 0.00 0.00 96 1009.7
20260904135600 16 360 9.7 0.0 0.00 0.00 0.00 95 1009.7
20260904135059 16 360 8.0 0.0 0.00 0.00 0.00 95 1009.6
20260904134604 16 360 9.7 0.0 0.00 0.00 0.00 95 1009.6
20260904133559 16 360 9.7 0.0 0.00 0.00 0.00 95 1009.3
20260904133107 16 360 9.7 0.0 0.00 0.00 0.00 95 1009.4
20260904132659 16 360 8.0 0.0 0.00 0.00 0.00 95 1009.4
20260904132058 16 360 8.0 0.0 0.00 0.00 0.00 95 1009.3
20260904131602 16 360 8.0 0.0 0.00 0.00 0.00 95 1009.3
20260904131058 16 360 6.4 0.0 0.00 0.00 0.00 95 1009.4
20260904130557 16 360 4.8 0.0 0.00 0.00 0.00 95 1009.4
20260904130058 16 360 4.8 0.0 0.00 0.00 0.00 95 1009.4
20260904125600 16 360 3.2 0.0 0.00 0.00 0.00 95 1009.4
20260904125056 16 360 3.2 0.0 0.00 0.00 0.00 95 1009.2
20260904124603 16 360 4.8 0.0 0.00 0.00 0.00 95 1009.1
20260904123555 16 360 6.4 0.0 0.00 0.00 0.00 95 1009.1
20260904123055 16 360 6.4 0.0 0.00 0.00 0.00 95 1009.0
20260904122554 16 360 6.4 0.0 0.00 0.00 0.00 95 1009.0
20260904122056 15 360 4.8 0.0 0.00 0.00 0.00 94 1009.1
20260904121554 15 360 4.8 0.0 0.00 0.00 0.00 94 1009.1
20260904121053 15 360 4.8 0.0 0.00 0.00 0.00 94 1009.1
20260904120553 15 360 4.8 0.0 0.00 0.00 0.00 94 1009.0
20260904120059 16 360 4.8 0.0 0.00 0.00 0.00 94 1009.0
20260904115552 16 360 4.8 0.0 0.00 0.00 0.00 94 1009.1
20260904115055 16 360 4.8 0.0 0.00 0.00 0.00 94 1009.0
20260904114555 16 360 6.4 0.0 0.00 0.00 0.00 94 1009.1
20260904113555 16 360 4.8 0.0 0.00 0.00 0.00 94 1009.1
20260904113052 15 360 4.8 0.0 0.00 0.00 0.00 94 1009.1
20260904112551 16 360 4.8 0.0 0.00 0.00 0.00 93 1009.1
20260904112051 15 360 3.2 0.0 0.00 0.00 0.00 94 1009.1
20260904111551 15 360 3.2 0.0 0.00 0.00 0.00 93 1009.1
20260904111051 16 360 3.2 0.0 0.00 0.00 0.00 93 1009.1
20260904110551 16 360 3.2 0.0 0.00 0.00 0.00 93 1009.1
20260904110051 16 360 4.8 0.0 0.00 0.00 0.00 93 1009.2
20260904105553 16 360 4.8 0.0 0.00 0.00 0.00 93 1009.2
20260904105050 16 360 4.8 0.0 0.00 0.00 0.00 93 1009.2
20260904104549 16 360 4.8 0.0 0.00 0.00 0.00 93 1009.1
20260904103550 16 360 3.2 0.0 0.00 0.00 0.00 92 1009.2
20260904103050 16 360 3.2 0.0 0.00 0.00 0.00 93 1009.2
20260904102550 16 360 3.2 0.0 0.00 0.00 0.00 92 1009.2
20260904102050 16 360 1.6 0.0 0.00 0.00 0.00 93 1009.2
20260904101550 16 360 1.6 0.0 0.00 0.00 0.00 93 1009.1
20260904101051 16 360 1.6 0.0 0.00 0.00 0.00 93 1009.1
20260904100549 16 360 0.0 0.0 0.00 0.00 0.00 93 1009.1
20260904100051 16 360 0.0 0.0 0.00 0.00 0.00 93 1009.0
20260904095550 16 360 0.0 0.0 0.00 0.00 0.00 92 1008.8
20260904095048 16 360 1.6 0.0 0.00 0.00 0.00 92 1008.8
20260904094548 16 360 1.6 0.0 0.00 0.00 0.00 93 1008.8
20260904093547 15 360 0.0 0.0 0.00 0.00 0.00 92 1008.8
20260904093052 15 360 0.0 0.0 0.00 0.00 0.00 91 1008.9
20260904092545 15 360 0.0 0.0 0.00 0.00 0.00 92 1009.0
20260904092048 15 360 0.0 0.0 0.00 0.00 0.00 92 1009.0
20260904091552 15 360 0.0 0.0 0.00 0.00 0.00 91 1009.0
20260904091046 15 360 1.6 0.0 0.00 0.00 0.00 91 1008.9
20260904090544 15 360 0.0 0.0 0.00 0.00 0.00 91 1009.0
20260904090043 16 360 1.6 0.0 0.00 0.00 0.00 91 1008.8
20260904085545 16 360 1.6 0.0 0.00 0.00 0.00 91 1008.6
20260904085044 16 360 0.0 0.0 0.00 0.00 0.00 91 1008.6
20260904084543 16 360 1.6 0.0 0.00 0.00 0.00 91 1008.5
20260904083542 16 360 1.6 0.0 0.00 0.00 0.00 91 1008.7
20260904083043 16 360 1.6 0.0 0.00 0.00 0.00 90 1008.7
20260904082544 16 360 1.6 0.0 0.00 0.00 0.00 90 1008.7
20260904082145 16 360 3.2 0.0 0.00 0.00 0.00 90 1008.7
20260904081542 16 360 3.2 0.0 0.00 0.00 0.00 90 1008.6
20260904081041 16 360 3.2 0.0 0.00 0.00 0.00 91 1008.7
20260904080541 17 360 3.2 0.0 0.00 0.00 0.00 91 1008.8
20260904080041 17 360 3.2 0.0 0.00 0.00 0.00 91 1008.8
20260904075539 16 360 1.6 0.0 0.00 0.00 0.00 91 1008.8
20260904075037 16 360 0.0 0.0 0.00 0.00 0.00 91 1008.9
20260904074552 16 360 0.0 0.0 0.00 0.00 0.00 90 1008.9
20260904073536 16 360 0.0 0.0 0.00 0.00 0.00 88 1008.7
20260904073035 16 360 0.0 0.0 0.00 0.00 0.00 89 1008.7
20260904072535 16 360 1.6 0.0 0.00 0.00 0.00 87 1008.7
20260904072034 16 360 1.6 0.0 0.00 0.00 0.00 87 1008.6
20260904071548 17 360 3.2 0.0 0.00 0.00 0.00 88 1008.6
20260904071034 17 360 4.8 0.0 0.00 0.00 0.00 89 1008.6
20260904070534 17 360 4.8 0.0 0.00 0.00 0.00 89 1008.6
20260904070034 17 360 3.2 0.0 0.00 0.00 0.00 90 1008.6
20260904065533 17 360 3.2 0.0 0.00 0.00 0.00 89 1008.6
20260904065033 17 360 3.2 0.0 0.00 0.00 0.00 90 1008.6
20260904064536 17 360 3.2 0.0 0.00 0.00 0.00 90 1008.6
20260904063533 16 360 0.0 0.0 0.00 0.00 0.00 89 1008.4
20260904063043 16 360 0.0 0.0 0.00 0.00 0.00 88 1008.5
20260904062532 16 360 0.0 0.0 0.00 0.00 0.00 87 1008.5
20260904062033 16 360 0.0 0.0 0.00 0.00 0.00 87 1008.4
20260904061532 17 360 0.0 0.0 0.00 0.00 0.00 86 1008.4
20260904061030 17 360 0.0 0.0 0.00 0.00 0.00 86 1008.3
20260904060530 17 360 0.0 0.0 0.00 0.00 0.00 87 1008.2
20260904060030 17 360 0.0 0.0 0.00 0.00 0.00 87 1008.1
20260904055530 17 360 0.0 0.0 0.00 0.00 0.00 87 1008.1
20260904055029 17 360 1.6 0.0 0.00 0.00 0.00 86 1008.1
20260904054534 17 360 4.8 0.0 0.00 0.00 0.00 87 1008.2
20260904053532 18 360 4.8 0.0 0.00 0.00 0.00 86 1008.0
20260904053030 18 360 4.8 0.0 0.00 0.00 0.00 86 1008.0
20260904052531 18 360 4.8 0.0 0.00 0.00 0.00 86 1008.0
20260904052031 18 360 6.4 0.0 0.00 0.00 0.00 85 1007.9
20260904051530 18 360 6.4 0.0 0.00 0.00 0.00 85 1007.9
20260904051031 18 360 8.0 0.0 0.00 0.00 0.00 85 1008.0
20260904050529 18 360 9.7 0.0 0.00 0.00 0.00 86 1007.9
20260904050030 18 360 9.7 0.0 0.00 0.00 0.00 87 1007.8
20260904045528 18 360 8.0 0.0 0.00 0.00 0.00 88 1007.8
20260904045028 17 360 4.8 0.0 0.00 0.00 0.00 89 1007.6
20260904044529 17 360 0.0 0.0 0.00 0.00 0.00 89 1007.5
20260904043525 16 360 1.6 0.0 0.00 0.00 0.00 88 1007.5
20260904043026 16 360 1.6 0.0 0.00 0.00 0.00 89 1007.6
20260904042526 16 360 0.0 0.0 0.00 0.00 0.00 89 1007.6
20260904042029 16 360 0.0 0.0 0.00 0.00 0.00 89 1007.7
20260904041526 15 360 1.6 0.0 0.00 0.00 0.00 89 1007.6
20260904041025 15 360 1.6 0.0 0.00 0.00 0.00 88 1007.7
20260904040528 15 360 3.2 0.0 0.00 0.00 0.00 87 1007.7
20260904040025 14 360 3.2 0.0 0.00 0.00 0.00 87 1007.7
20260904035524 14 360 1.6 0.0 0.00 0.00 0.00 85 1007.6
20260904035027 15 360 3.2 0.0 0.00 0.00 0.00 86 1007.7
20260904034527 15 360 3.2 0.0 0.00 0.00 0.00 86 1007.6
20260904033524 15 360 3.2 0.0 0.00 0.00 0.00 85 1007.6
20260904033026 15 360 1.6 0.0 0.00 0.00 0.00 84 1007.6
20260904032523 15 360 0.0 0.0 0.00 0.00 0.00 84 1007.7
20260904032024 15 360 0.0 0.0 0.00 0.00 0.00 82 1007.6
20260904031523 15 360 0.0 0.0 0.00 0.00 0.00 80 1007.6
20260904031026 16 360 0.0 0.0 0.00 0.00 0.00 80 1007.6
20260904030523 16 360 0.0 0.0 0.00 0.00 0.00 81 1007.6
20260904030029 17 360 0.0 0.0 0.00 0.00 0.00 81 1007.4
20260904025522 17 360 0.0 0.0 0.00 0.00 0.00 81 1007.4
20260904025021 17 360 0.0 0.0 0.00 0.00 0.00 80 1007.5
20260904024523 17 360 0.0 0.0 0.00 0.00 0.00 80 1007.4
20260904023520 17 360 0.0 0.0 0.00 0.00 0.00 79 1007.2
20260904023020 17 360 0.0 0.0 0.00 0.00 0.00 79 1007.1
20260904022519 18 360 0.0 0.0 0.00 0.00 0.00 78 1007.0
20260904022019 18 360 0.0 0.0 0.00 0.00 0.00 77 1006.8
20260904021530 18 360 0.0 0.0 0.00 0.00 0.00 77 1006.8
20260904021017 18 360 0.0 0.0 0.00 0.00 0.00 77 1006.5
20260904020516 18 360 1.6 0.0 0.00 0.00 0.00 76 1006.3
20260904020116 19 360 1.6 0.0 0.00 0.00 0.00 75 1006.2
20260904015515 20 360 3.2 0.0 0.00 0.00 0.00 74 1006.2
20260904015016 20 360 1.6 0.0 0.00 0.00 0.00 72 1006.1
20260904014515 21 360 0.0 0.0 0.00 0.00 0.00 73 1006.0
20260904013515 21 360 0.0 0.0 0.00 0.00 0.00 68 1005.8
20260904013015 22 360 0.0 0.0 0.00 0.00 0.00 67 1005.8
20260904012514 23 360 0.0 0.0 0.00 0.00 0.00 65 1005.8
20260904012014 24 360 0.0 0.0 0.00 0.00 0.00 63 1005.7
20260904011514 25 107 0.0 0.0 0.00 0.00 0.00 63 1005.7
20260904011014 25 107 0.0 0.0 0.00 0.00 0.00 62 1005.7
20260904010516 25 107 1.6 0.0 0.00 0.00 0.00 62 1005.7
20260904010019 25 107 1.6 0.0 0.00 0.00 0.00 61 1005.6
20260904005513 25 107 1.6 0.0 0.00 0.00 0.00 61 1005.6
20260904005017 25 107 3.2 0.0 0.00 0.00 0.00 60 1005.5
20260904004514 26 107 3.2 0.0 0.00 0.00 0.00 60 1005.5
20260904003513 26 107 1.6 0.0 0.00 0.00 0.00 60 1005.3
20260904003016 26 107 1.6 0.0 0.00 0.00 0.00 60 1005.2
20260904002513 25 107 3.2 0.0 0.00 0.00 0.00 61 1005.2
20260904002013 25 107 3.2 0.0 0.00 0.00 0.00 62 1005.1
20260904001512 25 107 3.2 0.0 0.00 0.00 0.00 62 1005.2
20260904001013 25 107 3.2 0.0 0.00 0.00 0.00 62 1005.1
20260904000515 25 360 3.2 0.0 0.00 0.00 0.00 62 1005.1
20260904000013 25 360 3.2 0.0 0.00 0.00 0.00 61 1005.0
20260903235512 25 360 3.2 0.0 0.00 0.00 0.00 60 1005.0
20260903235012 25 360 4.8 0.0 0.00 0.00 0.00 59 1005.0
20260903234513 26 360 6.4 0.0 0.00 0.00 0.00 59 1005.0
20260903233512 26 360 8.0 0.0 0.00 0.00 0.00 58 1004.9
20260903233011 26 360 9.7 0.0 0.00 0.00 0.00 58 1004.9
20260903232512 26 360 11.3 0.0 0.00 0.00 0.00 57 1004.8
20260903232011 26 360 8.0 0.0 0.00 0.00 0.00 56 1004.8
20260903231511 27 360 4.8 0.0 0.00 0.00 0.00 51 1004.7
20260903231010 27 360 4.8 0.0 0.00 0.00 0.00 46 1004.6
20260903230510 27 360 6.4 0.0 0.00 0.00 0.00 45 1004.6
20260903230013 27 360 6.4 0.0 0.00 0.00 0.00 48 1004.5
20260903225512 27 360 6.4 0.0 0.00 0.00 0.00 49 1004.5
20260903225010 27 360 6.4 0.0 0.00 0.00 0.00 51 1004.4
20260903224510 27 360 8.0 0.0 0.00 0.00 0.00 50 1004.4
20260903223513 27 360 8.0 0.0 0.00 0.00 0.00 53 1004.3
20260903223010 27 360 6.4 0.0 0.00 0.00 0.00 49 1004.2
20260903222511 27 360 6.4 0.0 0.00 0.00 0.00 50 1004.3
20260903222013 27 360 8.0 0.0 0.00 0.00 0.00 51 1004.3
20260903221525 27 360 8.0 0.0 0.00 0.00 0.00 51 1004.1
20260903221013 27 360 9.7 0.0 0.00 0.00 0.00 51 1004.1
20260903220510 27 360 8.0 0.0 0.00 0.00 0.00 52 1004.2
20260903220010 27 360 8.0 0.0 0.00 0.00 0.00 52 1004.1
20260903215511 27 360 8.0 0.0 0.00 0.00 0.00 52 1004.0
20260903215010 27 360 9.7 0.0 0.00 0.00 0.00 51 1004.0
20260903214510 28 360 9.7 0.0 0.00 0.00 0.00 52 1004.0
20260903213510 27 360 9.7 0.0 0.00 0.00 0.00 51 1004.0
20260903213018 28 360 8.0 0.0 0.00 0.00 0.00 51 1004.0
20260903212509 28 360 8.0 0.0 0.00 0.00 0.00 52 1003.9
20260903212011 28 360 6.4 0.0 0.00 0.00 0.00 50 1003.9
20260903211509 28 360 4.8 0.0 0.00 0.00 0.00 47 1003.9
20260903211008 28 360 3.2 0.0 0.00 0.00 0.00 48 1003.8
20260903210508 28 360 3.2 0.0 0.00 0.00 0.00 49 1003.8
20260903210011 28 360 4.8 0.0 0.00 0.00 0.00 48 1003.8
20260903205510 28 360 6.4 0.0 0.00 0.00 0.00 48 1003.8
20260903205006 28 360 6.4 0.0 0.00 0.00 0.00 49 1003.8
20260903204507 28 360 4.8 0.0 0.00 0.00 0.00 50 1003.8
20260903203507 27 360 3.2 0.0 0.00 0.00 0.00 50 1004.0
20260903203006 27 360 4.8 0.0 0.00 0.00 0.00 50 1004.1
20260903202503 28 360 4.8 0.0 0.00 0.00 0.00 52 1004.2
20260903202003 27 360 3.2 0.0 0.00 0.00 0.00 53 1004.3
20260903201503 27 360 3.2 0.0 0.00 0.00 0.00 55 1004.3
20260903201059 27 360 3.2 0.0 0.00 0.00 0.00 55 1004.4
20260903200559 26 360 4.8 0.0 0.00 0.00 0.00 55 1004.3
20260903200059 27 360 3.2 0.0 0.00 0.00 0.00 55 1004.2
20260903195601 26 360 4.8 0.0 0.00 0.00 0.00 56 1004.2
20260903195057 26 360 6.4 0.0 0.00 0.00 0.00 57 1004.3
20260903194557 26 360 6.4 0.0 0.00 0.00 0.00 57 1004.3
20260903193558 26 360 6.4 0.0 0.00 0.00 0.00 59 1004.1
20260903193056 26 360 4.8 0.0 0.00 0.00 0.00 60 1004.0
20260903192555 25 360 3.2 0.0 0.00 0.00 0.00 60 1004.2
20260903192053 25 360 4.8 0.0 0.00 0.00 0.00 62 1004.4
20260903191552 25 188 4.8 0.0 0.00 0.00 0.00 64 1004.4
20260903191051 24 360 4.8 0.0 0.00 0.00 0.00 64 1004.5
20260903190553 23 88 4.8 0.0 0.00 0.00 0.00 64 1004.5
20260903190051 23 234 4.8 0.0 0.00 0.00 0.00 64 1004.6
20260903185550 23 237 6.4 0.0 0.00 0.00 0.00 65 1004.6
20260903185052 23 181 8.0 0.0 0.00 0.00 0.00 66 1004.5
20260903184550 23 360 6.4 0.0 0.00 0.00 0.00 66 1004.5
20260903183550 23 188 6.4 0.0 0.00 0.00 0.00 65 1004.4
20260903183050 23 360 6.4 0.0 0.00 0.00 0.00 65 1004.4
20260903182550 24 123 6.4 0.0 0.00 0.00 0.00 65 1004.5
20260903182049 24 360 8.0 0.0 0.00 0.00 0.00 65 1004.4
20260903181549 24 103 11.3 0.0 0.00 0.00 0.00 65 1004.5
20260903181048 23 136 11.3 0.0 0.00 0.00 0.00 66 1004.7
20260903180548 23 167 9.7 0.0 0.00 0.00 0.00 66 1004.7
20260903180110 23 174 9.7 0.0 0.00 0.00 0.00 67 1004.6